DW4008 Weather Reports


time (UTC)temp
F
wind
direction
speed
knots
gust
knots
rain 1hr
in
rain 24hr
in
rain mn
in
humidity
%
barometer
mb
20260506174819 35 115 0.0 0.0 0.00 0.00 0.00 81 1020.4
20260506173336 33 110 0.0 0.0 0.00 0.00 0.00 78 1020.5
20260506171807 35 92 0.0 0.0 0.00 0.00 0.00 73 1020.4
20260506170324 36 92 0.0 0.0 0.00 0.00 0.00 76 1020.4
20260506164820 37 92 0.0 0.0 0.00 0.00 0.00 81 1020.3
20260506163326 35 92 0.0 0.0 0.00 0.00 0.00 75 1020.2
20260506161842 34 92 0.0 0.0 0.00 0.00 0.00 82 1020.0
20260506160326 33 92 0.0 0.0 0.00 0.00 0.00 82 1020.1
20260506154809 32 92 0.0 0.0 0.00 0.00 0.00 84 1020.1
20260506153357 32 91 0.0 0.0 0.00 0.00 0.00 85 1019.9
20260506151812 30 91 0.0 0.0 0.00 0.00 0.00 85 1019.8
20260506150314 30 91 0.0 0.0 0.00 0.00 0.00 88 1019.5
20260506144835 29 91 0.0 0.0 0.00 0.00 0.00 89 1019.6
20260506143324 29 91 0.0 0.0 0.00 0.00 0.00 88 1019.7
20260506141819 29 91 0.0 0.0 0.00 0.00 0.00 92 1019.7
20260506140324 28 91 0.0 0.0 0.00 0.00 0.00 92 1019.5
20260506134821 28 91 0.0 0.0 0.00 0.00 0.00 93 1019.4
20260506133317 27 91 0.0 0.0 0.00 0.00 0.00 93 1019.5
20260506131824 26 91 0.0 0.0 0.00 0.00 0.00 93 1019.2
20260506130322 26 91 0.0 0.0 0.00 0.00 0.00 94 1018.9
20260506124824 25 91 0.0 0.0 0.00 0.00 0.00 93 1018.7
20260506123318 25 91 0.0 0.0 0.00 0.00 0.00 94 1018.6
20260506121819 25 91 0.0 0.0 0.00 0.00 0.00 93 1018.2
20260506120321 25 91 0.0 0.0 0.00 0.00 0.00 93 1018.1
20260506114828 25 91 0.0 0.0 0.00 0.00 0.00 93 1018.0
20260506113347 25 91 0.0 0.0 0.00 0.00 0.00 93 1017.8
20260506111815 25 98 0.0 0.0 0.00 0.00 0.00 93 1017.5
20260506110310 25 98 0.0 0.0 0.00 0.00 0.00 93 1017.3
20260506104828 25 98 0.0 0.0 0.00 0.00 0.00 94 1017.2
20260506103319 25 99 0.0 0.0 0.00 0.00 0.00 94 1016.9
20260506101822 25 127 0.0 0.0 0.00 0.00 0.00 95 1017.5
20260506100307 26 127 0.0 0.0 0.00 0.00 0.00 95 1017.6
20260506094808 26 128 0.0 0.0 0.00 0.00 0.00 95 1017.4
20260506093323 26 128 0.0 0.0 0.00 0.00 0.00 95 1017.7
20260506091813 26 128 0.0 0.0 0.00 0.00 0.00 95 1017.5
20260506090323 26 128 0.0 0.0 0.00 0.00 0.00 95 1017.5
20260506084821 26 128 0.0 0.0 0.00 0.00 0.00 95 1017.3
20260506083317 26 128 0.0 0.0 0.00 0.00 0.00 95 1017.5
20260506081846 26 128 0.0 0.0 0.00 0.00 0.00 95 1017.5
20260506080328 26 127 0.0 0.0 0.00 0.00 0.00 95 1017.5
20260506073325 27 127 0.0 0.0 0.00 0.00 0.00 95 1017.6
20260506071840 27 126 0.0 0.0 0.00 0.00 0.00 95 1017.4
20260506070329 27 127 0.0 0.0 0.00 0.00 0.00 95 1017.2
20260506061812 27 127 0.0 0.0 0.00 0.00 0.00 95 1018.0
20260506060325 27 127 0.0 0.0 0.00 0.00 0.00 95 1017.7
20260506050320 27 127 0.0 0.0 0.00 0.00 0.00 95 1017.0
20260506044836 27 127 0.0 0.0 0.00 0.00 0.00 95 1016.6
20260506043354 27 127 0.0 0.0 0.00 0.00 0.00 95 1016.6
20260506041817 28 134 0.0 0.0 0.00 0.00 0.00 95 1016.6
20260506040324 28 117 0.0 0.0 0.00 0.00 0.00 95 1016.5
20260506034818 29 92 0.0 0.0 0.00 0.00 0.00 95 1016.1
20260506033329 29 169 0.0 0.0 0.00 0.00 0.00 95 1016.5
20260506031838 29 169 0.0 0.0 0.00 0.00 0.00 95 1016.2
20260506030322 29 169 0.0 0.0 0.00 0.00 0.00 95 1016.0
20260506024826 29 169 0.0 0.0 0.00 0.00 0.00 95 1015.5
20260506023326 29 169 0.0 0.0 0.00 0.00 0.00 95 1015.2
20260506021814 29 169 0.0 0.0 0.00 0.00 0.00 95 1014.9
20260506020332 29 169 0.0 0.0 0.00 0.00 0.00 94 1015.1
20260506014826 29 169 0.0 0.0 0.00 0.00 0.00 94 1014.9
20260506013318 29 169 0.0 0.0 0.00 0.00 0.00 94 1014.6
20260506011817 29 169 0.0 0.0 0.00 0.00 0.00 94 1014.4
20260506010316 29 169 0.0 0.0 0.00 0.00 0.00 94 1014.3
20260506004835 29 169 0.0 0.0 0.00 0.00 0.00 94 1014.1
20260506003329 29 169 0.0 0.0 0.00 0.00 0.00 94 1014.0
20260506001832 29 169 0.0 0.0 0.00 0.00 0.00 94 1013.9
20260506000322 29 169 0.0 0.0 0.00 0.00 0.00 93 1014.2
20260505234827 30 169 0.0 0.0 0.00 0.00 0.00 93 1014.3
20260505233340 30 169 0.0 0.0 0.00 0.00 0.00 93 1014.3
20260505231829 30 169 0.0 0.0 0.00 0.00 0.00 93 1014.2
20260505230314 31 169 0.0 0.0 0.00 0.00 0.00 93 1014.1
20260505224828 31 169 0.0 0.0 0.00 0.00 0.00 93 1013.9
20260505223347 31 169 0.0 0.0 0.00 0.00 0.00 93 1013.8
20260505221816 31 169 0.0 0.0 0.00 0.00 0.00 93 1014.1
20260505220317 31 169 0.0 0.0 0.00 0.00 0.00 94 1014.0
20260505214828 31 169 0.0 0.0 0.00 0.00 0.00 94 1013.9
20260505213335 31 169 0.0 0.0 0.00 0.00 0.00 94 1013.8
20260505211818 30 169 0.0 0.0 0.00 0.00 0.00 94 1013.8
20260505210333 30 169 0.0 0.0 0.00 0.00 0.00 94 1013.7
20260505204833 30 169 0.0 0.0 0.00 0.00 0.00 94 1014.3
20260505203321 31 169 0.0 0.0 0.00 0.00 0.00 93 1014.5
20260505201834 31 169 0.0 0.0 0.00 0.00 0.00 94 1014.5
20260505200313 31 142 0.0 0.0 0.00 0.00 0.00 94 1014.3
20260505194830 31 135 0.0 0.0 0.00 0.00 0.00 94 1014.2
20260505193320 30 139 0.0 0.0 0.00 0.00 0.00 94 1014.1
20260505191830 30 138 0.9 0.0 0.00 0.00 0.00 94 1014.9
20260505190318 29 136 1.7 0.0 0.00 0.00 0.00 94 1014.9
20260505184815 29 140 1.7 0.0 0.00 0.00 0.00 94 1014.7
20260505183316 29 141 2.6 0.0 0.00 0.00 0.00 94 1014.7
20260505181821 29 140 2.6 0.0 0.00 0.00 0.00 94 1015.1
20260505180325 30 139 1.7 0.0 0.00 0.00 0.00 94 1015.0